Date String (YYYY-MM-DD hh:mm:ss) UTC,Instrument flags,absolute air pressure of the measurement (hPa),sample flow rate (lpm),inlet stack bypass flow (lpm),air temperature of the measurement (°C),ambient temperature measured by the external sensor (°C),aerosol sample conditioner tube jacket temperature (°C),OPC LED temperature (°C),internal box temperature (°C),relative humidity of the measurement (%),span deviation,mass concentration of particles derived from Lorenz-Mie calculation of OPC scattering (μg/m³),mass concentration of particles derived from Lorenz-Mie calculation of OPC scattering (μg/m³),mass concentration of particles derived from Lorenz-Mie calculation of OPC scattering (μg/m³)
DateTimeUTC,F1_M11,P_M11,Q1_M11,Q2_M11,T1_M11,T2_M11,T3_M11,T4_M11,T5_M11,U1_M11,ZSPAN_M11,X2_M11,X0_M11,X1_M11
2023-11-30 18:00:00,SystemResetWarning,0823.9,5.00,000.00,020.4,019.6,000.0,028.6,021.7,12.4,0000.0,0006.43,0011.55,0005.78
2023-11-30 18:01:00,SystemResetWarning,0823.8,5.01,000.00,020.4,019.7,000.0,028.6,021.7,12.5,0000.0,0006.44,0011.73,0005.77
2023-11-30 18:02:00,SystemResetWarning,0823.8,5.01,000.00,020.4,019.7,000.0,028.6,021.7,12.3,0000.0,0006.45,0012.18,0005.77
2023-11-30 18:03:00,SystemResetWarning,0823.8,5.01,000.00,020.4,019.7,000.0,028.6,021.7,12.1,0000.0,0006.46,0012.33,0005.79
2023-11-30 18:04:00,SystemResetWarning,0823.8,5.00,000.00,020.4,019.7,000.0,028.6,021.7,12.3,0000.0,0006.45,0012.28,0005.78
2023-11-30 18:05:00,SystemResetWarning,0823.8,5.00,000.00,020.4,019.7,000.0,028.6,021.7,12.4,0000.0,0006.42,0011.82,0005.77
2023-11-30 18:06:00,SystemResetWarning,0823.8,4.99,000.00,020.5,019.7,000.0,028.6,021.7,12.1,0000.0,0006.36,0012.18,0005.75
2023-11-30 18:07:00,SystemResetWarning,0823.8,5.00,000.00,020.5,019.7,000.0,028.6,021.8,11.8,0000.0,0006.33,0013.05,0005.74
2023-11-30 18:08:00,SystemResetWarning,0823.8,5.01,000.00,020.5,019.7,000.0,028.6,021.8,11.7,0000.0,0006.29,0013.01,0005.72
2023-11-30 18:09:00,SystemResetWarning,0823.8,5.01,000.00,020.5,019.7,000.0,028.6,021.7,11.7,0000.0,0006.27,0012.27,0005.72
2023-11-30 18:10:00,SystemResetWarning,0823.7,4.99,000.00,020.5,019.7,000.0,028.7,021.7,11.9,0000.0,0006.26,0012.14,0005.70
2023-11-30 18:11:00,SystemResetWarning,0823.7,4.99,000.00,020.5,019.7,000.0,028.7,021.7,11.9,0000.0,0006.24,0012.51,0005.67
2023-11-30 18:12:00,SystemResetWarning,0823.7,5.00,000.00,020.5,019.7,000.0,028.7,021.8,11.9,0000.0,0006.23,0012.95,0005.67
2023-11-30 18:13:00,SystemResetWarning,0823.7,5.01,000.00,020.5,019.8,000.0,028.7,021.8,11.8,0000.0,0006.21,0012.51,0005.67
2023-11-30 18:14:00,SystemResetWarning,0823.7,5.01,000.00,020.5,019.8,000.0,028.7,021.8,11.6,0000.0,0006.19,0012.60,0005.64
2023-11-30 18:15:00,SystemResetWarning,0823.7,4.99,000.00,020.5,019.8,000.0,028.7,021.8,11.9,0000.0,0006.18,0012.70,0005.63
2023-11-30 18:16:00,SystemResetWarning,0823.7,4.99,000.00,020.5,019.8,000.0,028.7,021.8,11.8,0000.0,0006.08,0012.57,0005.58
2023-11-30 18:17:00,SystemResetWarning,0823.6,5.00,000.00,020.5,019.8,000.0,028.7,021.8,11.6,0000.0,0006.06,0012.00,0005.52
2023-11-30 18:18:00,SystemResetWarning,0823.6,4.99,000.00,020.5,019.8,000.0,028.7,021.8,11.7,0000.0,0006.02,0011.45,0005.48
2023-11-30 18:19:00,SystemResetWarning,0823.6,5.00,000.00,020.5,019.8,000.0,028.7,021.8,11.7,0000.0,0006.00,0011.72,0005.46
2023-11-30 18:20:00,SystemResetWarning,0823.6,5.00,000.00,020.5,019.8,000.0,028.7,021.8,11.7,0000.0,0005.99,0011.83,0005.43
2023-11-30 18:21:00,SystemResetWarning,0823.5,5.01,000.00,020.5,019.8,000.0,028.8,021.8,11.9,0000.0,0005.91,0011.60,0005.40
2023-11-30 18:22:00,SystemResetWarning,0823.6,5.01,000.00,020.5,019.8,000.0,028.8,021.8,11.6,0000.0,0005.90,0011.56,0005.40
2023-11-30 18:23:00,SystemResetWarning,0823.5,5.00,000.00,020.6,019.8,000.0,028.8,021.8,11.6,0000.0,0005.90,0011.19,0005.39
2023-11-30 18:24:00,SystemResetWarning,0823.5,5.00,000.00,020.6,019.8,000.0,028.8,021.8,11.7,0000.0,0005.91,0011.23,0005.39
2023-11-30 18:25:00,SystemResetWarning,0823.5,4.99,000.00,020.6,019.8,000.0,028.8,021.9,12.0,0000.0,0005.92,0011.20,0005.40
2023-11-30 18:26:00,SystemResetWarning,0823.5,5.01,000.00,020.6,019.8,000.0,028.8,021.9,12.0,0000.0,0005.89,0010.82,0005.39
2023-11-30 18:27:00,SystemResetWarning,0823.5,5.00,000.00,020.6,019.8,000.0,028.8,021.9,11.7,0000.0,0005.97,0011.01,0005.41
2023-11-30 18:28:00,SystemResetWarning,0823.5,5.01,000.00,020.6,019.9,000.0,028.8,021.9,11.6,0000.0,0006.02,0011.55,0005.45
2023-11-30 18:29:00,SystemResetWarning,0823.4,5.00,000.00,020.6,019.9,000.0,028.8,021.9,11.8,0000.0,0006.04,0011.70,0005.49
2023-11-30 18:30:00,SystemResetWarning,0823.4,5.00,000.00,020.6,019.9,000.0,028.8,021.9,11.8,0000.0,0006.05,0011.06,0005.50
2023-11-30 18:31:00,SystemResetWarning,0823.4,5.00,000.00,020.6,019.9,000.0,028.8,021.9,11.5,0000.0,0006.04,0011.09,0005.50
2023-11-30 18:32:00,SystemResetWarning,0823.4,4.99,000.00,020.6,019.8,000.0,028.8,021.9,11.6,0000.0,0006.07,0011.89,0005.51
2023-11-30 18:33:00,SystemResetWarning,0823.4,5.00,000.00,020.6,019.8,000.0,028.9,021.9,11.6,0000.0,0006.11,0012.43,0005.52
2023-11-30 18:34:00,SystemResetWarning,0823.4,5.00,000.00,020.6,019.8,000.0,028.9,021.9,11.7,0000.0,0006.06,0011.98,0005.51
2023-11-30 18:35:00,SystemResetWarning,0823.4,5.00,000.00,020.6,019.8,000.0,028.9,021.9,11.5,0000.0,0006.04,0011.93,0005.48
2023-11-30 18:36:00,SystemResetWarning,0823.3,5.00,000.00,020.6,019.8,000.0,028.9,021.9,11.8,0000.0,0006.03,0011.85,0005.45
2023-11-30 18:37:00,SystemResetWarning,0823.3,5.01,000.00,020.6,019.8,000.0,028.9,021.8,11.8,0000.0,0005.98,0011.86,0005.41
2023-11-30 18:38:00,SystemResetWarning,0823.3,5.00,000.00,020.6,019.8,000.0,028.9,021.9,11.8,0000.0,0005.87,0011.67,0005.35
2023-11-30 18:39:00,SystemResetWarning,0823.3,5.00,000.00,020.6,019.8,000.0,028.9,021.9,11.7,0000.0,0005.80,0011.20,0005.31
2023-11-30 18:40:00,SystemResetWarning,0823.2,5.00,000.00,020.6,019.8,000.0,028.9,021.9,11.6,0000.0,0005.70,0010.56,0005.25
2023-11-30 18:41:00,SystemResetWarning,0823.1,4.99,000.00,020.6,019.8,000.0,028.9,021.9,11.6,0000.0,0005.64,0010.64,0005.19
2023-11-30 18:42:00,SystemResetWarning,0823.1,4.99,000.00,020.6,019.8,000.0,028.9,021.9,11.4,0000.0,0005.57,0010.72,0005.13
2023-11-30 18:43:00,SystemResetWarning,0823.1,5.00,000.00,020.6,019.8,000.0,028.9,021.9,11.6,0000.0,0005.52,0010.02,0005.07
2023-11-30 18:44:00,SystemResetWarning,0823.1,5.00,000.00,020.6,019.8,000.0,028.9,021.9,11.7,0000.0,0005.40,0009.02,0005.00
2023-11-30 18:45:00,SystemResetWarning,0823.0,5.01,000.00,020.6,019.8,000.0,028.9,021.9,11.4,0000.0,0005.33,0008.97,0004.93
2023-11-30 18:46:00,SystemResetWarning,0823.1,5.01,000.00,020.6,019.8,000.0,028.9,021.9,11.4,0000.0,0005.25,0008.86,0004.87
2023-11-30 18:47:00,SystemResetWarning,0823.0,4.99,000.00,020.6,019.8,000.0,028.9,021.9,11.4,0000.0,0005.16,0008.63,0004.82
2023-11-30 18:48:00,SystemResetWarning,0823.0,4.99,000.00,020.6,019.8,000.0,028.9,021.9,11.4,0000.0,0005.13,0008.51,0004.79
2023-11-30 18:49:00,SystemResetWarning,0823.0,4.99,000.00,020.6,019.8,000.0,028.9,021.8,11.5,0000.0,0005.13,0008.46,0004.77
2023-11-30 18:50:00,SystemResetWarning,0823.0,5.01,000.00,020.6,019.8,000.0,028.9,021.8,11.7,0000.0,0005.11,0008.46,0004.74
2023-11-30 18:51:00,SystemResetWarning,0823.0,5.00,000.00,020.6,019.8,000.0,028.9,021.9,11.8,0000.0,0005.13,0008.54,0004.73
2023-11-30 18:52:00,SystemResetWarning,0823.0,5.01,000.00,020.6,019.8,000.0,028.9,021.9,11.8,0000.0,0005.15,0008.50,0004.73
2023-11-30 18:53:00,SystemResetWarning,0823.0,5.00,000.00,020.6,019.8,000.0,028.9,021.9,11.9,0000.0,0005.19,0008.15,0004.76
2023-11-30 18:54:00,SystemResetWarning,0823.0,5.00,000.00,020.6,019.8,000.0,028.9,021.9,11.7,0000.0,0005.19,0008.21,0004.78
2023-11-30 18:55:00,SystemResetWarning,0823.0,5.00,000.00,020.6,019.8,000.0,028.9,021.9,11.9,0000.0,0005.24,0008.39,0004.81
2023-11-30 18:56:00,SystemResetWarning,0822.9,4.99,000.00,020.6,019.8,000.0,028.9,021.9,11.8,0000.0,0005.30,0008.48,0004.85
2023-11-30 18:57:00,SystemResetWarning,0822.9,5.00,000.00,020.6,019.8,000.0,028.9,021.9,11.8,0000.0,0005.38,0008.62,0004.89
2023-11-30 18:58:00,SystemResetWarning,0823.1,5.02,000.00,020.6,019.8,000.0,028.9,021.8,12.0,0000.0,0005.43,0008.79,0004.93
2023-11-30 18:59:00,SystemResetWarning,0822.9,4.99,000.00,020.6,019.8,000.0,028.9,021.8,11.7,0000.0,0005.46,0009.07,0004.98
